Home   Weather   Westerland   Past weeks

Flag for Germany Past Weather in Westerland, Schleswig-Holstein, Germany — Yesterday and Last 2 Weeks

Now
38 °F

Overcast.


Feels Like: 33 °F
Forecast: 38 / 41 °F
Wind: 7 mph from Southwest

Location: List / Sylt

Current Time: Jan 18, 2017 at 5:33:39 am

Latest Report: Jan 18, 2017 at 5:00 am


Visibility: 14 mi

Pressure: 30.63 "Hg

Humidity: 78%

Dew Point: 32 °F

Location of WesterlandLocation

Past Weather in Westerland — Graph

°F

Westerland Temperature Yesterday

Maximum temperature yesterday: 38 °F (at 3:00 pm)
Minimum temperature yesterday: 31 °F (at 12:00 am)
Average temperature yesterday: 35 °F

High & Low Weather Summary for the Past Weeks

 TemperatureHumidityPressure
High46 °F (Jan 3, 8:00 pm)100% (Jan 7, 9:00 am)30.76 "Hg (Jan 7, 9:00 am)
Low23 °F (Jan 5, 11:00 pm)48% (Jan 4, 8:00 pm)29.18 "Hg (Jan 11, 2:00 pm)
Average36 °F82%29.98 "Hg
* Reported Jan 3 3:00 am — Jan 18 3:00 am, Westerland, Weather by CustomWeather, © 2017

Note: Actual official high and low records may vary slightly from our data, if they occured in-between our weather recording intervals... More about our weather records

Advertising

Westerland Weather History for the Previous 24 Hours

Scroll right to see more
 ConditionsComfort  
Time TempWeatherWind HumidityBarometerVisibility
3:00 am
Wed, Jan 18
38 °FOvercast.7 mph74%30.64 "Hg22 mi
2:00 am38 °FOvercast.7 mph73%30.65 "Hg31 mi
12:00 am38 °FOvercast.6 mph74%30.65 "Hg43 mi
11:00 pm
Tue, Jan 17
38 °FOvercast.6 mph71%30.65 "Hg43 mi
9:00 pm37 °FOvercast.5 mph77%30.65 "Hg43 mi
8:00 pm38 °FOvercast.7 mph79%30.65 "Hg43 mi
6:00 pm37 °FOvercast.5 mph73%30.63 "Hg43 mi
5:00 pm38 °FOvercast.6 mph70%30.63 "Hg43 mi
3:00 pm38 °FOvercast.5 mph67%30.63 "Hg43 mi
2:00 pm38 °FOvercast.3 mph75%30.63 "Hg40 mi
12:00 pm33 °FOvercast.5 mph85%30.64 "Hg25 mi
11:00 am33 °FOvercast.5 mph81%30.63 "Hg31 mi
9:00 am32 °FOvercast.5 mph82%30.60 "Hg34 mi
8:00 am33 °FOvercast.2 mph91%30.59 "Hg43 mi
6:00 am34 °FOvercast.2 mph77%30.57 "Hg43 mi
5:00 am34 °FOvercast.2 mph83%30.56 "Hg43 mi
Weather by CustomWeather, © 2017

See weather overviewHow to use our weather pages